User: anonymous   Login
Location: Ash Swamp
(41.5170°N, 74.6157°W)
Time: 08:53:38
(UTC+00:00)
Language:

ERS-2 - Orbit

View from above orbital plane
View from above orbital plane
View from above satellite
View from above satellite

Ground track
Ground track

The orbit data is extracted from the following two-line orbital elements,

1 23560U 95021A   20266.05807065  .00000420  00000-0  21500-4 0  9998
2 23560  98.5524  72.8424 0003184 182.1554 177.9667 15.23294933356851
Epoch (UTC): 22 September 2020 01:23:37
Eccentricity: 0.0003184
inclination: 98.5524°
perigee height: 494 km
apogee height: 498 km
right ascension of ascending node: 72.8424°
argument of perigee: 182.1554°
revolutions per day: 15.23294933
mean anomaly at epoch: 177.9667°
orbit number at epoch: 35685

The dashed part of the orbit path shows where the satellite is in the earth's shadow,  

DLR